Location: Caltech
(34.1382°N, 118.1253°W)
Time: 10:36:58
(UTC-07:00)

ERBS - Visible Passes

Search period start: 23 April 2018 00:00
Search period end: 03 May 2018 00:00
Orbit: 422 x 436 km, 57.0° (Epoch: 22 April)

Date Brightness Start Highest point End Pass type
(mag) Time Alt. Az. Time Alt. Az. Time Alt. Az.
23 Apr 4.9 03:46:30 17° E 03:46:30 17° E 03:47:51 10° ENE visible
23 Apr 3.9 05:19:41 15° W 05:21:36 23° NW 05:24:23 10° NNE visible
24 Apr 2.9 04:37:30 40° NW 04:37:39 40° NW 04:40:52 10° NNE visible
25 Apr 4.1 03:55:14 31° NNE 03:55:14 31° NNE 03:57:09 10° NE visible
26 Apr 5.7 03:12:53 12° NE 03:12:53 12° NE 03:13:12 10° NE visible
26 Apr 4.6 04:46:04 12° NW 04:46:41 13° NW 04:48:20 10° N visible
27 Apr 4.6 04:03:40 18° NNW 04:03:40 18° NNW 04:05:16 10° N visible
28 Apr 5.4 03:21:11 14° NNE 03:21:11 14° NNE 03:21:47 10° NNE visible
